Regional Weather Roundup
Issued by NWS

Home | Current Version | Previous Version | Text Only | Print | Product List | Glossary Off
Versions: 1 2 3 4 5 6 7 8 9 10 11 12 13 14 15 16 17 18 19 20 21 22 23 24 25 26 27 28 29 30 31 32 33 34 35 36 37 38 39 40 41 42 43 44 45 46 47 48 49 50

000
ASUS45 KBOI 300010
RWRID

IDAHO REGIONAL WEATHER ROUNDUP
NATIONAL WEATHER SERVICE BOISE ID
600 PM MDT SUN MAY 29 2016

NOTE: "FAIR" INDICATES FEW OR NO CLOUDS BELOW 12000 FEET
WITH NO SIGNIFICANT WEATHER AND/OR OBSTRUCTIONS TO VISIBILITY

IDZ012-014-300100-
SOUTHWEST IDAHO


CITY           SKY/WX    TMP DP  RH WIND       PRES   REMARKS
BOISE          CLOUDY    79  31  17 N7        29.93F
CALDWELL       CLOUDY    81  38  21 N7        29.91F
MOUNTAIN HOME  CLOUDY    84  44  24 NW20      29.90F
$$

IDZ016-017-300100-
SOUTHCENTRAL IDAHO


CITY           SKY/WX    TMP DP  RH WIND       PRES   REMARKS
BURLEY         CLOUDY    71  38  29 W5        29.98F
JEROME         MOSUNNY   76  38  25 SE10      29.97F
TWIN FALLS     MOSUNNY   71  42  35 E6        29.98F
$$

IDZ019>023-300100-
SOUTHEAST IDAHO


CITY           SKY/WX    TMP DP  RH WIND       PRES   REMARKS
IDAHO FALLS    LGT RAIN  73  39  29 SW14      30.00F
POCATELLO      CLOUDY    68  42  38 S21G30    30.02R
REXBURG        CLOUDY    71  33  24 SW10G21   29.99F
$$

IDZ006-010-011-018-031-032-300100-
CENTRAL IDAHO MOUNTAINS


CITY           SKY/WX    TMP DP  RH WIND       PRES   REMARKS
MCCALL         MOSUNNY   66  27  23 SW12      30.01F
HAILEY         MOSUNNY   70  37  30 SW6       30.02F
STANLEY          N/A     65  28  24 N7        30.09F
SALMON         MOSUNNY   70  37  30 N3        29.91F
CHALLIS        CLOUDY    69  26  20 S10       29.99R
$$

IDZ002-004-006-007-026-300100-
NORTHERN IDAHO


CITY           SKY/WX    TMP DP  RH WIND       PRES   REMARKS
LEWISTON       MOSUNNY   77  40  26 NW18G25   29.93F
LOWELL           N/A     76  43  30 E5        29.91R
COEUR D`ALENE  PTSUNNY   68  37  32 S16G22    29.92S
MULLAN PASS    MOSUNNY   52  32  46 SW9       30.04S
$$



USA.gov is the U.S. government's official web portal to all federal, state and local government web resources and services.